sat.trackr.live / text

‹ back to catalog

STARLINK-11377 [DTC]

NORAD 62013 · 2024-213F

PAYLOAD ACTIVE UNKNOWN

§ Identity

Operator
Country
US
Launch date
2024-11-18
Launch site
AFWTR
Launch vehicle
Mass (kg)
RCS (m²)

Purposes: comms

External: N2YO · Heavens-Above · Gunter

§ Orbital elements

Epoch: 2026-09-21T21:34:26.313024Z

Period
91.73 min
Inclination
53.1578°
Eccentricity
0.0001107
Mean motion
15.69824521 rev/d
Perigee alt
358.7 km
Apogee alt
360.1 km
Semi-major
6,737.5 km
B*
1.2330e-3
RAAN
153.9100°
Arg perigee
41.8829°
Mean anomaly
318.2274°
Rev number
10,573

§ Raw data

STARLINK-11377 [DTC]1 62013U 24213F   26264.89891566  .00152277  00000+0  12330-2 0  99902 62013  53.1578 153.9100 0001107  41.8829 318.2274 15.69824521105739

JSON: /api/v1/satellites/62013 · /tle

For live sub-satellite position, see the globe view (requires WebGL).

§ Visibility from observer

Set your observer location to see the next 7 days of passes ≥ 10°. The values pass through the URL so the page stays shareable.

No JS? Fill the form by hand. The geolocation button needs JavaScript.